Regional Weather Roundup
Issued by NWS Charleston, SC

Current Version | Previous Version | Graphics & Text | Print | Product List | Glossary On
Versions: 1 2 3 4 5 6 7 8 9 10 11 12 13 14 15 16 17 18 19 20 21 22 23 24 25 26 27 28 29 30 31 32 33 34 35 36 37 38 39 40 41 42 43 44 45 46 47 48 49 50
000 ASUS42 KCHS 301512 RWRCHS REGIONAL WEATHER ROUNDUP NATIONAL WEATHER SERVICE CHARLESTON SC 1100 AM EDT SUN AUG 30 2015 NOTE: "FAIR" INDICATES FEW OR NO CLOUDS BELOW 12,000 FEET WITH NO SIGNIFICANT WEATHER AND/OR OBSTRUCTIONS TO VISIBILITY. NOT ALL STATIONS ARE QUALITY CONTROLLED BY THE NATIONAL WEATHER SERVICE. USE DATA WITH CAUTION...ESPECIALLY DEWPOINT OBSERVATIONS. SCZ027-030-031-034>040-042>050-301600- ...SOUTHEAST SOUTH CAROLINA... CITY SKY/WX TMP DP RH WIND PRES REMARKS N CHARLESTON CLOUDY 78 74 87 E5 30.14R WATERFRONT PRK N/A 77 75 93 NE5 30.10R MOUNT PLEASANT LGT RAIN 79 75 89 CALM 30.14R JOHNS ISLAND PTSUNNY 79 77 94 CALM 30.13R PINOPOLIS N/A 79 73 83 E7 30.06R MONCKS CORNER FAIR 79 73 83 NE5 30.14R SUMMERVILLE PTSUNNY 77 75 94 CALM 30.15R BEAUFORT MCAS CLOUDY 79 76 90 NE5 30.13R BEAUFORT ARPT CLOUDY 79 77 94 CALM 30.12R HILTON HEAD IS PTSUNNY 79 73 83 NE3 30.14R WALTERBORO CLOUDY 77 73 88 CALM 30.15R ALLENDALE FAIR 73 72 94 CALM 30.14R FOG ...SOUTHERN MIDLANDS AND PEE DEE... CITY SKY/WX TMP DP RH WIND PRES REMARKS GEORGETOWN NOT AVBL KINGSTREE NOT AVBL ORANGEBURG CLOUDY 75 68 78 E6 30.15R BARNWELL DRIZZLE 73 72 94 E7 30.15R AIKEN RAIN 68 64 88 NE7 30.19R MANNING FAIR 75 70 83 N3 30.15R COLUMBIA CLOUDY 75 66 73 N5 30.15R SUMTER DRIZZLE 73 66 80 NE8 30.14S FLORENCE CLOUDY 77 68 73 E5 30.17R MYRTLE BEACH PTSUNNY 81 70 69 E13 30.18R N MYRTLE BEACH CLOUDY 82 70 66 E7 30.16R $$ GAZ063-065-086>088-099>101-113>116-118-119-134>141-150-301600- ...SOUTHEAST GEORGIA... CITY SKY/WX TMP DP RH WIND PRES REMARKS SAVANNAH ARPT CLOUDY 78 74 87 NE7 30.11R HUNTER AAF CLOUDY 79 79 100 NE5 30.09R FORT STEWART PTSUNNY 78 74 86 NE3 30.08R STATESBORO CLOUDY 76 76 100 E5 30.13R SYLVANIA CLOUDY 77 76 96 E5 30.14R CLAXTON NOT AVBL ...CSRA...CENTRAL AND FAR SOUTHEAST GEORGIA... CITY SKY/WX TMP DP RH WIND PRES REMARKS THOMSON CLOUDY 73 73 100 E5 30.18R AUGUSTA-BUSH LGT RAIN 73 70 90 NE3 30.13R AUGUSTA-DANIEL LGT RAIN 75 69 81 CALM 30.15S SWAINSBORO CLOUDY N/A N/A N/A E6 30.13R VIDALIA PTSUNNY 79 73 83 E5 30.11R EASTMAN CLOUDY 78 78 100 CALM 30.12R HAZLEHURST FAIR 83 76 80 E5 30.08S HX 90 ALMA PTSUNNY 82 74 76 E5 30.09R WAYCROSS CLOUDY 84 79 85 E3 30.08R HX 95 JESUP CLOUDY 82 77 83 NE3 30.09R HX 91 BAXLEY PTSUNNY 82 77 83 SE6 30.09R HX 91 BRUNSWICK CLOUDY 82 73 74 E7 30.09R SAINT SIMONS PTSUNNY 84 70 62 SE7 30.08R $$ SCZ027-028-034-036>038-045-046-048>050-GAZ119-141-301600- ...LAKE AND SUPPLEMENTAL COASTAL OBSERVATIONS... STATION/POSITION TIME TEMP WIND PRES WAVE SWELL AIR SEA DIR/SP/G HT/PER HT/PER/DIR (UTC) (F) (DEG/KT/KT) (MB) (FT/S) (FT/S/D) UPR LAKE MARION NOT AVBL WINYAH BAY 1345 78 90/ 2 1019.0 LAKE MURRAY 1400 73 10/ 1/ 3 1020.7R ACE BASIN NERRS NOT AVBL FORT PULASKI NOT AVBL SAPELO ISLAND 1400 82 50/ 2 1018.0S $$ ANZ835-935-AMZ111-154-330-350-352-354-370-450-454-472-301600- ...C-MAN AND BUOY OBSERVATIONS... STATION/POSITION TIME TEMP WIND PRES WAVE SWELL AIR SEA DIR/SP/G HT/PER HT/PER/DIR (UTC) (F) (DEG/KT/KT) (MB) (FT/S) (FT/S/D) BUOY 41004 1450 80 85 60/ 10/ 12 1019.7R 4/10 5/10 BUOY 41008 1450 82 84 90/ 10/ 12 1018.7 4/11 5/100/11 FOLLY BEACH CMAN 1400 79 70/ 8/ 9 1019.8R CAPERS NEARSHORE NOT AVBL FRIPP NEARSHORE NOT AVBL STATION/POSITION TIME TEMP WIND PRES WAVE SWELL AIR SEA DIR/SP/G HT/PER HT/PER/DIR (UTC) (F) (DEG/KT/KT) (MB) (FT/S) (FT/S/D) 5E ST. MARYS GA 1421 86 N/A 4/11 2/110/11 FRYING PAN BUOY 1450 80 82 80/ 10/ 12 1021.5S 4/10 3/130/10 BUOY 41025 1450 78 84 360/ 10/ 12 1021.2R 4/10 3/100/10 CAPE LOOKOUT NC 1400 77 360/ 4/ 5 1021.0R BUOY 41002 1450 84 84 160/ 4/ 6 1021.6R 4/ 9 3/140/ 9 BUOY 41010 1420 85 85 130/ 17/ 21 1018.2R ST AUGUSTINE FL 1500 78 83 110/ 17/ 20 1018.6R $$

USA.gov is the U.S. government's official web portal to all federal, state and local government web resources and services.